sat.trackr.live / text

‹ back to catalog

STARLINK-31615

NORAD 59413 · 2024-064R

PAYLOAD ACTIVE UNKNOWN

§ Identity

Operator
Country
US
Launch date
2024-04-05
Launch site
AFETR
Launch vehicle
Mass (kg)
RCS (m²)

Purposes: comms

External: N2YO · Heavens-Above · Gunter

§ Orbital elements

Epoch: 2026-05-24T20:32:12.175872Z

Period
94.27 min
Inclination
43.0042°
Eccentricity
0.0001130
Mean motion
15.27575027 rev/d
Perigee alt
482.3 km
Apogee alt
483.8 km
Semi-major
6,861.2 km
B*
1.9382e-5
RAAN
339.1513°
Arg perigee
272.5912°
Mean anomaly
87.4811°
Rev number
12,095

§ Raw data

STARLINK-316151 59413U 24064R   26144.85569648  .00000271  00000+0  19382-4 0  99922 59413  43.0042 339.1513 0001130 272.5912  87.4811 15.27575027120952

JSON: /api/v1/satellites/59413 · /tle

For live sub-satellite position, see the globe view (requires WebGL).

§ Visibility from observer

Set your observer location to see the next 7 days of passes ≥ 10°. The values pass through the URL so the page stays shareable.

No JS? Fill the form by hand. The geolocation button needs JavaScript.